Flag for Indonesia Weather past 2 weeks in Denpasar, Bali, Indonesia

Now
72 °F

Sunny.


Feels Like: 67 °F
Forecast: 72 / 83 °F
Wind: No wind

Location: Juanda International Airport

Current Time: Sep 2, 2015 at 7:25:20 AM

Latest Report: Sep 2, 2015 at 7:00 AM


Visibility: 3 mi

Pressure: 29.92 "Hg

Humidity: 94%

Dew point: 70 °F

Location of DenpasarLocation

Historic Weather in Denpasar — Graph

°F

Denpasar temperature yesterday

Maximum temperature yesterday: 90 °F (at 12:30 PM)
Minimum temperature yesterday: 72 °F (at 4:00 AM)
Average temperature yesterday: 80 °F

Past Weeks' High & Low Weather Summary

 TemperatureHumidityPressure
High90 °F (Aug 23, 1:30 PM)100% (Aug 23, 7:30 AM)29.98 "Hg (Aug 23, 7:30 AM)
Low68 °F (Aug 24, 5:30 AM)21% (Aug 18, 9:30 AM)29.80 "Hg (Aug 18, 4:00 PM)
Average80 °F66%29.89 "Hg
* Reported Aug 18 7:00 AM — Sep 2 5:00 AM, Denpasar, Weather by CustomWeather, © 2015

Note: Actual official high and low records may vary slightly from our data, if they occured in-between our weather recording intervals... More about our weather records

Advertising

Denpasar weather history for previous 24 hours

 ConditionsComfort  
Time TempWeatherWind HumidityBarometerVisibility
5:00 AM
Wed, Sep 2
72 °FHaze.5 mph88%29.89 "Hg3 mi
3:00 AM73 °FPassing clouds.3 mph83%29.89 "Hg4 mi
2:30 AM75 °FPassing clouds.5 mph78%29.89 "Hg4 mi
2:00 AM75 °FPassing clouds.5 mph78%29.89 "Hg4 mi
1:30 AM75 °FPassing clouds.5 mph78%29.89 "Hg4 mi
1:00 AM75 °FPassing clouds.6 mph78%29.92 "Hg4 mi
12:30 AM75 °FPassing clouds.6 mph83%29.92 "Hg4 mi
12:00 AM77 °FPassing clouds.3 mph74%29.92 "Hg4 mi
11:00 PM
Tue, Sep 1
77 °FPassing clouds.5 mph74%29.92 "Hg4 mi
10:30 PM77 °FPassing clouds.5 mph74%29.92 "Hg4 mi
10:00 PM79 °FPassing clouds.6 mph70%29.92 "Hg4 mi
9:30 PM79 °FPassing clouds.7 mph70%29.92 "Hg5 mi
9:00 PM79 °FPassing clouds.10 mph74%29.92 "Hg5 mi
8:30 PM81 °FPassing clouds.13 mph70%29.89 "Hg5 mi
8:00 PM81 °FPassing clouds.14 mph70%29.89 "Hg5 mi
7:30 PM81 °FPassing clouds.14 mph70%29.86 "Hg5 mi
7:00 PM82 °FPassing clouds.14 mph66%29.86 "Hg6 mi
6:30 PM82 °FPassing clouds.14 mph66%29.86 "HgN/A
6:00 PM84 °FPassing clouds.17 mph58%29.86 "HgN/A
5:30 PM86 °FPassing clouds.16 mph40%29.83 "HgN/A
5:00 PM86 °FPassing clouds.14 mph40%29.83 "HgN/A
4:30 PM88 °FPassing clouds.13 mph38%29.83 "HgN/A
4:00 PM90 °FPassing clouds.13 mph38%29.83 "HgN/A
3:30 PM88 °FPassing clouds.12 mph38%29.83 "HgN/A
3:00 PM88 °FPassing clouds.12 mph38%29.83 "HgN/A
2:30 PM88 °FPassing clouds.12 mph38%29.83 "HgN/A
2:00 PM88 °FPassing clouds.12 mph40%29.86 "HgN/A
1:30 PM88 °FPassing clouds.12 mph40%29.86 "HgN/A
12:30 PM90 °FPassing clouds.13 mph41%29.89 "HgN/A
11:30 AM86 °FPassing clouds.10 mph49%29.92 "HgN/A
11:00 AM86 °FPassing clouds.10 mph49%29.92 "HgN/A
10:30 AM84 °FPassing clouds.9 mph51%29.92 "HgN/A
10:00 AM84 °FPassing clouds.7 mph55%29.95 "HgN/A
9:00 AM82 °FSunny.7 mph58%29.95 "Hg5 mi
8:30 AM81 °FSunny.5 mph66%29.92 "Hg4 mi
8:00 AM79 °FSunny.5 mph70%29.92 "Hg3 mi
7:00 AM72 °FHaze.5 mph83%29.92 "Hg2 mi
Weather by CustomWeather, © 2015

See weather overviewHow to use our weather pages